Skip Page Navigation
NASA JPL Caltech
NASA Logo - Jet Propulsion Laboratory + View the NASA Portal
+ Center for Near-Earth Object Studies
JPL Home Earth Solar System Stars & Galaxies Technology
JPL Solar System Dynamics
BODIES ORBITS EPHEMERIDES TOOLS PHYSICAL DATA DISCOVERY FAQ SITE MAP
IMPORTANT: The SSD Announcement email list is now available. Major changes are coming in the near future, including possible hostname and/or URL changes. To be notified of such changes, subscribe to this email list.

Please visit this page for more details.


JPL Small-Body Database Browser
Search: [ help ]  
344230 (2001 SR10)
Classification: Main-belt Asteroid          SPK-ID: 2344230
Ephemeris | Orbit Diagram | Orbital Elements | Mission Design | Physical Parameters | Discovery Circumstances ]

[ show orbit diagram ]
Orbital Elements at Epoch 2458600.5 (2019-Apr-27.0) TDB
Reference: JPL 13 (heliocentric ecliptic J2000)
 Element Value Uncertainty (1-sigma)   Units 
e .2675118371891976 6.1625e-08  
a 3.194459674148913 5.4131e-08 au
q 2.339903897890532 2.1016e-07 au
i 26.31078885892159 1.6675e-05 deg
node 157.3672151939415 1.4424e-05 deg
peri 258.7873879593718 3.2577e-05 deg
M 342.5310929462238 3.1001e-05 deg
tp 2458701.694701892768
(2019-Aug-06.19470189)
0.00018117 TDB
period 2085.424839072653
5.71
5.3007e-05
1.451e-07
d
yr
n .1726266961316548 4.3878e-09 deg/d
Q 4.049015450407294 6.8611e-08 au
  Orbit Determination Parameters
   # obs. used (total)      184  
   data-arc span      6291 days (17.22 yr)  
   first obs. used      2001-08-16  
   last obs. used      2018-11-06  
   planetary ephem.      DE431  
   SB-pert. ephem.      SB431-N16  
   condition code      0  
   norm. resid. RMS      .63841  
   source      ORB  
   producer      Otto Matic  
   solution date      2019-Jul-13 15:11:31  

Additional Information
 Earth MOID = 1.4983 au 
 Jupiter MOID = 2.05775 au 
 T_jup = 2.982 
[ show covariance matrix ]

Ephemeris | Orbit Diagram | Orbital Elements | Mission Design | Physical Parameters | Discovery Circumstances ]

Physical Parameter Table
Parameter Symbol Value Units Sigma Reference Notes
absolute magnitude H 15.5   n/a MPO455507  
diameter diameter 5.570 km 1.182 urn:nasa:pds:neowise_diameters_albedos::2.0[mainbelt] (http://adsabs.harvard.edu/abs/2011ApJ...741...68M)  
geometric albedo albedo 0.043   0.013 urn:nasa:pds:neowise_diameters_albedos::2.0[mainbelt] (http://adsabs.harvard.edu/abs/2011ApJ...741...68M)  

344230 (2001 SR10)          Discovered 2001-Sep-16 by LINEAR at Socorro
Reference: 20121128/Numbers.arcLast Updated: 2012-12-03
Ephemeris | Orbit Diagram | Orbital Elements | Mission Design | Physical Parameters | Discovery Circumstances ]
ABOUT SSD CREDITS/AWARDS PRIVACY/COPYRIGHT GLOSSARY LINKS
FirstGov 2019-Dec-14 19:13 UT
(server date/time)  
NASA Home Page
Site Manager:   Ryan S. Park
Webmaster  Alan B. Chamberlin